Location: Buffign�court
(47.8126°N, 6.0176°E)
Time: 01:52:57
(UTC+00:00)

Cosmos 1302 Rocket - Pass Details

Date: 16 June 2021
Orbit: 757 x 775 km, 74.0° (Epoch: 25 July)

Event Time Altitude Azimuth Distance (km) Brightness Sun altitude
Exits shadow 21:42:28 18° 180° (S) 1,816 5.4 -14.3°
Maximum altitude 21:46:16 57° 107° (ESE) 907 4.1 -14.6°
Drops below altitude 10° 21:51:24 10° 30° (NNE) 2,315 7.0 -15.0°
Sets 21:53:48 0° 26° (NNE) 3,242 7.8 -15.1°
